• MPC Preparation (Info)

  • MPEC 2014-K65 : 2014 KA46

    The following Minor Planet Electronic Circular may be linked-to from your own Web pages, but must not otherwise be redistributed electronically.

    A form allowing access to any MPEC is at the bottom of this page.


    Read MPEC 2014-K64 Read MPEC 2014-K66


    M.P.E.C. 2014-K65                                Issued 2014 May 28, 14:17 UT
    
         The Minor Planet Electronic Circulars contain information on unusual
             minor planets and routine data on comets.  They are published
       on behalf of Commission 20 of the International Astronomical Union by the
              Minor Planet Center, Smithsonian Astrophysical Observatory,
                              Cambridge, MA 02138, U.S.A.
    
                 Prepared using the Tamkin Foundation Computer Network
    
                                  MPC@CFA.HARVARD.EDU
                URL https://www.minorplanetcenter.net/    ISSN 1523-6714
    
                                       2014 KA46
    
    Observations:
         K14K46A* C2014 05 24.50580 17 01 52.558+04 41 32.32         21.3 wLEK065F51
         K14K46A  C2014 05 24.51688 17 01 55.639+04 41 08.63         21.2 wLEK065F51
         K14K46A  C2014 05 24.53905 17 02 01.810+04 40 21.49         21.5 wLEK065F51
         K14K46A _C2014 05 25.52594817 07 14.401+04 03 32.60         20.6 RtEK065568
         K14K46A _C2014 05 25.52720417 07 14.774+04 03 29.63         20.8 RtEK065568
         K14K46A _C2014 05 25.52845617 07 15.146+04 03 26.70         20.8 RtEK065568
         K14K46A KC2014 05 28.29492617 23 56.87 +01 57 15.8          20.5 VrEK065H21
         K14K46A KC2014 05 28.30454317 24 00.41 +01 56 44.9          20.5 VrEK065H21
         K14K46A KC2014 05 28.31376517 24 03.85 +01 56 16.7          20.3 VrEK065H21
    
    Observer details:
    568 Mauna Kea.  Observers R. J. Wainscoat, L. Wells.  Measurers M. Micheli,
        R. J. Wainscoat.  3.6-m Canada-France-Hawaii Telescope + CCD.
    F51 Pan-STARRS 1, Haleakala.  Observers N. Primak, A. Schultz, T. Goggia,
        M. Willman.  Measurer PS1 Science Consortium.  1.8-m Ritchey-Chretien
        + CCD.
    H21 Astronomical Research Observatory, Westfield.  Observer R. Holmes.
        Measurers S. Foglia, L. Buzzi, T. Linder, T. Lister, T. Vorobjov.  0.61-m
        f/4.0 astrograph + CCD.
    
    Orbital elements:
    2014 KA46                                                Earth MOID = 0.0474 AU
    Epoch 2014 May 23.0 TT = JDT 2456800.5                  MPC
    M 348.97100              (2000.0)            P               Q
    n   0.33356595     Peri.  194.53351     +0.12682782     +0.98074248
    a   2.0591196      Node    82.91485     -0.89448088     +0.17779791
    e   0.4866705      Incl.    8.60752     -0.42874079     -0.08082131
    P   2.95           H   24.4           G   0.15           U   8
    Residuals in seconds of arc
    140524 F51  0.1-  0.0     140525 568  0.1+  0.0     140528 H21  0.2+  0.3+
    140524 F51  0.0   0.1-    140525 568  0.0   0.0     140528 H21  0.2-  0.5-
    140524 F51  0.0   0.1+    140525 568  0.0   0.1+    140528 H21  0.0   0.2+
    
    Ephemeris:
    2014 KA46                a,e,i = 2.06, 0.49, 9                   q = 1.0570
    Date    TT    R. A. (2000) Decl.     Delta      r     Elong.  Phase     V
    2014 04 28    15 51 03.2 +08 29 42   0.2700  1.2443   148.2    25.2    23.2
    ...
    2014 05 13    16 20 04.9 +08 24 30   0.1777  1.1666   149.3    26.3    22.2
    ...
    2014 05 21    16 45 58.2 +06 24 34   0.1357  1.1317   150.1    26.4    21.5
    ...
    2014 05 27    17 15 44.1 +03 01 23   0.1080  1.1092   151.5    25.9    21.0
    2014 05 28    17 22 00.5 +02 13 17   0.1038  1.1058   151.7    25.7    20.9
    2014 05 29    17 28 45.1 +01 20 10   0.09976 1.1025   151.9    25.6    20.8
    ...
    2014 06 04    18 21 30.8 -06 02 29   0.07925 1.0850   151.9    26.1    20.3
    ...
    2014 06 12    20 12 11.2 -20 27 19   0.06737 1.0679   140.0    37.6    20.2
    ...
    2014 06 27    23 35 12.9 -32 47 27   0.09863 1.0572   111.8    63.2    21.7
    
    A. U. Tomatic                (C) Copyright 2014 MPC           M.P.E.C. 2014-K65
    

    Read MPEC 2014-K64 Read MPEC 2014-K66


    MPEC number:

    Enter an MPEC number in one of the following forms:

    • 1997-B01 (the full form)
    • J97B01 (the packed version of the full form)
    • B01 (the abbreviated form)